K4VI Weather Reports


Display with metric or nautical units.
time (UTC)temp
F
wind
direction
speed
MPH
gust
MPH
rain 1hr
in
rain 24hr
in
rain mn
in
humidity
%
barometer
mb
20260831021003 59 303 8.0 19.0 0.00 0.25 0.25 63 1041.4
20260831020503 59 301 5.0 11.0 0.00 0.25 0.25 57 1040.9
20260831020003 58 310 3.0 8.0 0.00 0.25 0.25 61 1040.8
20260831015503 57 320 3.0 6.0 0.00 0.25 0.25 63 1040.8
20260831015003 57 320 3.0 6.0 0.00 0.25 0.25 65 1040.8
20260831014503 57 317 4.0 9.0 0.00 0.25 0.25 66 1040.8
20260831014003 57 316 6.0 13.0 0.00 0.25 0.25 66 1040.8
20260831013503 58 317 7.0 14.0 0.00 0.25 0.25 66 1040.8
20260831013003 58 320 9.0 14.0 0.00 0.25 0.25 65 1040.7
20260831012503 58 318 10.0 14.0 0.00 0.25 0.25 64 1040.8
20260831012003 58 313 9.0 14.0 0.00 0.25 0.25 64 1040.6
20260831011503 58 312 9.0 15.0 0.00 0.25 0.25 66 1040.7
20260831011003 58 312 7.0 15.0 0.00 0.25 0.25 65 1040.6
20260831010504 59 314 8.0 14.0 0.00 0.25 0.25 63 1040.8
20260831010004 59 316 10.0 14.0 0.00 0.25 0.25 64 1040.6
20260831005717 59 315 10.0 20.0 0.00 0.25 0.25 63 1040.5
20260831005003 59 313 11.0 20.0 0.00 0.25 0.25 63 1040.5
20260831004503 59 312 11.0 17.0 0.00 0.25 0.25 65 1040.5
20260831004003 60 313 11.0 17.0 0.00 0.25 0.25 63 1040.5
20260831003503 61 300 10.0 21.0 0.00 0.25 0.25 60 1040.6
20260831003003 62 163 9.0 21.0 0.00 0.25 0.25 55 1040.8
20260831002720 63 176 8.0 21.0 0.00 0.25 0.25 53 1040.7
20260831002003 64 235 6.0 13.0 0.00 0.25 0.25 49 1040.5
20260831001721 64 236 5.0 12.0 0.00 0.25 0.25 48 1040.6
20260831001003 64 228 2.0 7.0 0.00 0.25 0.25 47 1040.4
20260831000722 64 227 2.0 7.0 0.00 0.25 0.25 48 1040.4
20260831000003 64 269 3.0 7.0 0.00 0.25 0.25 47 1040.2
20260830235503 64 310 3.0 5.0 0.00 0.25 0.25 50 1040.2
20260830235003 64 314 4.0 8.0 0.00 0.25 0.25 50 1040.2
20260830234718 64 310 4.0 8.0 0.00 0.25 0.25 50 1040.1
20260830234003 64 304 3.0 7.0 0.00 0.25 0.25 49 1040.3
20260830233503 65 303 3.0 7.0 0.00 0.25 0.25 49 1040.3
20260830233003 65 290 2.0 7.0 0.00 0.25 0.25 48 1040.2
20260830232503 66 304 2.0 4.0 0.00 0.25 0.25 49 1040.2
20260830232003 66 5 1.0 5.0 0.00 0.25 0.25 50 1040.1
20260830231503 66 310 2.0 5.0 0.00 0.25 0.25 50 1040.1
20260830231219 66 312 2.0 5.0 0.00 0.25 0.25 49 1040.2
20260830230503 66 314 2.0 8.0 0.00 0.25 0.25 50 1040.1
20260830230003 66 309 2.0 8.0 0.00 0.25 0.25 52 1040.1
20260830225503 66 313 2.0 8.0 0.00 0.25 0.25 51 1040.3
20260830225003 66 317 3.0 8.0 0.00 0.25 0.25 50 1040.3
20260830224503 66 315 3.0 6.0 0.00 0.25 0.25 50 1040.3
20260830224003 66 310 2.0 8.0 0.00 0.25 0.25 52 1040.4
20260830223503 65 306 3.0 8.0 0.00 0.25 0.25 52 1040.5
20260830223003 65 309 3.0 9.0 0.00 0.25 0.25 52 1040.5
20260830222503 64 312 4.0 10.0 0.00 0.25 0.25 58 1040.5
20260830222003 62 316 5.0 11.0 0.00 0.25 0.25 62 1040.5
20260830221503 60 318 6.0 11.0 0.00 0.25 0.25 63 1040.5
20260830221003 60 318 7.0 14.0 0.00 0.25 0.25 63 1040.5
20260830220503 59 318 7.0 14.0 0.00 0.25 0.25 64 1040.4
20260830220003 59 316 7.0 14.0 0.00 0.25 0.25 65 1040.5
20260830215503 60 309 9.0 18.0 0.00 0.25 0.25 65 1040.7
20260830215003 60 307 12.0 25.0 0.00 0.25 0.25 65 1040.7
20260830214503 62 301 8.0 25.0 0.00 0.25 0.25 60 1040.7
20260830214003 65 253 3.0 13.0 0.00 0.25 0.25 62 1040.6
20260830213503 65 266 2.0 6.0 0.00 0.25 0.25 56 1040.2
20260830213003 64 357 1.0 4.0 0.00 0.25 0.25 65 1040.1
20260830212503 64 305 1.0 3.0 0.00 0.25 0.25 63 1040.2
20260830212003 64 304 1.0 3.0 0.00 0.25 0.25 73 1040.0
20260830211503 63 304 1.0 2.0 0.00 0.25 0.25 70 1040.1
20260830211003 62 296 1.0 2.0 0.00 0.25 0.25 75 1040.2
20260830210503 61 300 1.0 5.0 0.04 0.25 0.25 71 1040.2
20260830210221 61 309 1.0 5.0 0.15 0.25 0.25 79 1040.3
20260830205503 60 323 2.0 7.0 0.25 0.25 0.25 76 1040.4
20260830205003 59 319 2.0 6.0 0.25 0.25 0.25 85 1040.4
20260830204503 58 317 1.0 3.0 0.25 0.25 0.25 86 1040.3
20260830204218 58 317 1.0 3.0 0.25 0.25 0.25 87 1040.4
20260830203503 57 317 1.0 3.0 0.25 0.25 0.25 87 1040.5
20260830203003 56 342 1.0 3.0 0.25 0.25 0.25 84 1040.5
20260830202503 56 65 1.0 3.0 0.25 0.25 0.25 83 1040.5
20260830202003 55 36 1.0 2.0 0.25 0.25 0.25 79 1040.3
20260830201503 55 334 1.0 9.0 0.25 0.25 0.25 79 1040.2
20260830201003 54 319 6.0 18.0 0.25 0.25 0.25 76 1040.3
20260830200503 54 311 12.0 24.0 0.21 0.21 0.21 74 1041.2
20260830200003 59 308 11.0 24.0 0.05 0.05 0.05 61 1041.3
20260830195503 66 307 6.0 18.0 0.00 0.00 0.00 48 1040.9
20260830195003 68 296 4.0 9.0 0.00 0.00 0.00 44 1040.4
20260830194503 68 301 2.0 8.0 0.00 0.00 0.00 43 1040.2
20260830194003 69 240 2.0 6.0 0.00 0.00 0.00 42 1039.9
20260830193717 69 179 3.0 7.0 0.00 0.00 0.00 42 1040.0
20260830193220 70 188 3.0 8.0 0.00 0.00 0.00 41 1040.1
20260830192503 70 244 3.0 8.0 0.00 0.00 0.00 40 1040.3
20260830192003 71 240 3.0 8.0 0.00 0.00 0.00 40 1040.4
20260830191503 70 153 3.0 8.0 0.00 0.00 0.00 41 1040.4
20260830191222 70 129 3.0 8.0 0.00 0.00 0.00 41 1040.4
20260830190503 68 254 3.0 8.0 0.00 0.00 0.00 43 1040.4
20260830190003 68 193 3.0 7.0 0.00 0.00 0.00 44 1040.7
20260830185503 67 239 3.0 9.0 0.00 0.00 0.00 44 1040.7
20260830185003 68 262 3.0 9.0 0.00 0.00 0.00 44 1040.7
20260830184503 68 289 3.0 10.0 0.00 0.00 0.00 43 1040.8
20260830184003 69 293 4.0 11.0 0.00 0.00 0.00 42 1040.8
20260830183504 70 278 3.0 11.0 0.00 0.00 0.00 42 1040.7
20260830183003 69 266 4.0 11.0 0.00 0.00 0.00 42 1040.6
20260830182503 69 249 5.0 11.0 0.00 0.00 0.00 43 1040.8
20260830182003 69 216 5.0 11.0 0.00 0.00 0.00 42 1040.9
20260830181503 70 183 4.0 12.0 0.00 0.00 0.00 41 1041.0
20260830181003 70 182 4.0 13.0 0.00 0.00 0.00 42 1041.0
20260830180503 69 206 4.0 13.0 0.00 0.00 0.00 42 1041.1
20260830180003 69 237 5.0 11.0 0.00 0.00 0.00 42 1041.2
20260830175503 68 262 5.0 12.0 0.00 0.00 0.00 43 1041.3
20260830175003 68 223 5.0 15.0 0.00 0.00 0.00 44 1041.2
20260830174503 68 250 6.0 15.0 0.00 0.00 0.00 44 1041.3
20260830174003 67 275 6.0 15.0 0.00 0.00 0.00 46 1041.2
20260830173503 66 265 6.0 15.0 0.00 0.00 0.00 45 1041.4
20260830173003 66 265 5.0 12.0 0.00 0.00 0.00 46 1041.5
20260830172503 66 262 5.0 11.0 0.00 0.00 0.00 46 1041.5
20260830172003 67 258 3.0 11.0 0.00 0.00 0.00 44 1041.6
20260830171720 68 278 3.0 9.0 0.00 0.00 0.00 44 1041.5
20260830171003 68 237 4.0 9.0 0.00 0.00 0.00 43 1041.5
20260830170503 69 226 3.0 10.0 0.00 0.00 0.00 44 1041.5
20260830170003 68 191 3.0 10.0 0.00 0.00 0.00 44 1041.5
20260830165503 67 157 3.0 9.0 0.00 0.00 0.00 46 1041.5
20260830165220 67 184 3.0 8.0 0.00 0.00 0.00 46 1041.5
20260830164503 66 280 4.0 8.0 0.00 0.00 0.00 48 1041.5
20260830164003 65 259 3.0 8.0 0.00 0.00 0.00 48 1041.5
20260830163718 65 218 2.0 6.0 0.00 0.00 0.00 48 1041.5
20260830163222 65 174 2.0 5.0 0.00 0.00 0.00 49 1041.4
20260830162719 64 358 2.0 5.0 0.00 0.00 0.00 49 1041.5
20260830162003 64 299 3.0 11.0 0.00 0.00 0.00 51 1041.5
20260830161503 63 302 3.0 11.0 0.00 0.00 0.00 50 1041.5
20260830161004 64 304 2.0 9.0 0.00 0.00 0.00 50 1041.6
20260830160503 63 307 3.0 11.0 0.00 0.00 0.00 51 1041.5
20260830160003 63 287 2.0 11.0 0.00 0.00 0.00 51 1041.4
20260830155503 63 203 2.0 5.0 0.00 0.00 0.00 52 1041.4
20260830155003 62 175 1.0 7.0 0.00 0.00 0.00 52 1041.4
20260830154503 62 172 2.0 7.0 0.00 0.00 0.00 52 1041.4
20260830154003 63 168 3.0 8.0 0.00 0.00 0.00 52 1041.4
20260830153719 63 172 3.0 9.0 0.00 0.00 0.00 52 1041.4
20260830153217 62 169 4.0 9.0 0.00 0.00 0.00 53 1041.3
20260830152503 62 171 3.0 9.0 0.00 0.00 0.00 53 1041.4
20260830152003 61 149 3.0 9.0 0.00 0.00 0.00 55 1041.3
20260830151503 60 163 2.0 9.0 0.00 0.00 0.00 57 1041.4
20260830151003 59 196 1.0 5.0 0.00 0.00 0.00 58 1041.4
20260830150503 59 193 2.0 10.0 0.00 0.00 0.00 58 1041.5
20260830150220 59 202 2.0 10.0 0.00 0.00 0.00 57 1041.6
20260830145503 59 253 2.0 5.0 0.00 0.00 0.00 58 1041.7
20260830145221 59 247 2.0 6.0 0.00 0.00 0.00 58 1041.6
20260830144503 59 231 2.0 6.0 0.00 0.00 0.00 59 1041.5
20260830144003 59 231 2.0 4.0 0.00 0.00 0.00 58 1041.5
20260830143503 59 191 2.0 5.0 0.00 0.00 0.00 59 1041.5
20260830143003 58 186 1.0 5.0 0.00 0.00 0.00 59 1041.6
20260830142503 58 192 1.0 6.0 0.00 0.00 0.00 60 1041.6
20260830142003 58 210 2.0 7.0 0.00 0.00 0.00 60 1041.6
20260830141717 58 231 2.0 7.0 0.00 0.00 0.00 60 1041.6
20260830141003 58 255 1.0 4.0 0.00 0.00 0.00 60 1041.5
20260830140503 58 196 1.0 2.0 0.00 0.00 0.00 60 1041.4
20260830140004 58 196 0.0 1.0 0.00 0.00 0.00 60 1041.5
20260830135503 58 196 1.0 3.0 0.00 0.00 0.00 60 1041.7
20260830135003 58 288 2.0 8.0 0.00 0.00 0.00 60 1041.8
20260830134719 58 301 3.0 8.0 0.00 0.00 0.00 60 1041.8
20260830134003 57 316 3.0 9.0 0.00 0.00 0.00 61 1041.6
20260830133720 57 317 3.0 9.0 0.00 0.00 0.00 61 1041.5
20260830133003 56 325 0.0 3.0 0.00 0.00 0.00 63 1041.4
20260830132503 56 325 0.0 1.0 0.00 0.00 0.00 64 1041.4
20260830132003 56 325 0.0 2.0 0.00 0.00 0.00 64 1041.2
20260830131503 56 324 0.0 2.0 0.00 0.00 0.00 64 1041.1
20260830131003 56 323 0.0 2.0 0.00 0.00 0.00 64 1041.2
20260830130718 56 323 0.0 2.0 0.00 0.00 0.00 64 1041.1
20260830130003 56 323 0.0 2.0 0.00 0.00 0.00 64 1041.0
20260830125503 56 323 0.0 2.0 0.00 0.00 0.00 64 1040.9
20260830125003 56 324 1.0 3.0 0.00 0.00 0.00 65 1040.8
20260830124503 55 324 0.0 3.0 0.00 0.00 0.00 65 1040.8
20260830124003 56 0 0.0 0.0 0.00 0.00 0.00 64 1040.6
20260830123503 56 330 1.0 4.0 0.00 0.00 0.00 64 1040.6
20260830123003 56 320 1.0 4.0 0.00 0.00 0.00 64 1040.7
20260830122503 56 157 1.0 4.0 0.00 0.00 0.00 63 1040.6
20260830122003 56 153 1.0 2.0 0.00 0.00 0.00 63 1040.5
20260830121503 56 151 1.0 2.0 0.00 0.00 0.00 63 1040.5
20260830121003 56 151 1.0 4.0 0.00 0.00 0.00 63 1040.5
20260830120503 56 211 2.0 7.0 0.00 0.00 0.00 63 1040.5
20260830120003 56 225 2.0 7.0 0.00 0.00 0.00 64 1040.4
20260830115503 56 185 1.0 4.0 0.00 0.00 0.00 64 1040.4
20260830115003 56 151 1.0 5.0 0.00 0.00 0.00 64 1040.3
20260830114503 56 60 2.0 8.0 0.00 0.00 0.00 64 1040.3
20260830114219 56 25 2.0 8.0 0.00 0.00 0.00 64 1040.3
20260830113503 56 214 1.0 6.0 0.00 0.00 0.00 63 1040.2
20260830113003 56 270 1.0 4.0 0.00 0.00 0.00 63 1040.2
20260830112503 56 278 2.0 4.0 0.00 0.00 0.00 63 1040.1
20260830112003 56 232 1.0 4.0 0.00 0.00 0.00 63 1040.0
20260830111503 57 166 1.0 4.0 0.00 0.00 0.00 63 1040.1
20260830111003 57 147 1.0 4.0 0.00 0.00 0.00 63 1040.1
20260830110503 57 187 1.0 7.0 0.00 0.00 0.00 62 1040.1
20260830110004 57 189 2.0 7.0 0.00 0.00 0.00 62 1040.0
20260830105503 57 173 2.0 7.0 0.00 0.00 0.00 62 1040.0
20260830105003 57 178 2.0 10.0 0.00 0.00 0.00 62 1040.0
20260830104721 57 175 2.0 10.0 0.00 0.00 0.00 62 1040.1
20260830104003 57 177 2.0 8.0 0.00 0.00 0.00 62 1040.1
20260830103503 57 189 2.0 8.0 0.00 0.00 0.00 62 1040.0
20260830103003 57 255 2.0 5.0 0.00 0.00 0.00 62 1040.1
20260830102718 57 279 2.0 5.0 0.00 0.00 0.00 62 1040.1
20260830102003 57 298 1.0 5.0 0.00 0.00 0.00 62 1040.2
20260830101503 57 283 2.0 5.0 0.00 0.00 0.00 62 1040.3
20260830101003 58 282 1.0 4.0 0.00 0.00 0.00 61 1040.3
20260830100503 58 256 2.0 8.0 0.00 0.00 0.00 61 1040.3
20260830100003 58 266 3.0 8.0 0.00 0.00 0.00 61 1040.3
20260830095503 58 290 3.0 9.0 0.00 0.00 0.00 60 1040.3
20260830095003 58 278 3.0 9.0 0.00 0.00 0.00 60 1040.4
20260830094503 58 260 2.0 8.0 0.00 0.00 0.00 60 1040.4
20260830094003 58 132 2.0 8.0 0.00 0.00 0.00 60 1040.4
20260830093718 58 147 2.0 8.0 0.00 0.00 0.00 59 1040.4
20260830093003 59 295 1.0 3.0 0.00 0.00 0.00 59 1040.4
20260830092719 59 300 2.0 11.0 0.00 0.00 0.00 59 1040.4
20260830092217 59 299 3.0 11.0 0.00 0.00 0.00 59 1040.4
20260830091503 59 313 3.0 10.0 0.00 0.00 0.00 58 1040.4
20260830091003 60 313 3.0 10.0 0.00 0.00 0.00 57 1040.4
20260830090503 60 306 3.0 10.0 0.00 0.00 0.00 56 1040.3
20260830090004 60 105 3.0 9.0 0.00 0.00 0.00 56 1040.3
20260830085503 60 115 4.0 10.0 0.00 0.00 0.00 55 1040.3
20260830085003 60 113 4.0 10.0 0.00 0.00 0.00 54 1040.2
20260830084504 60 112 4.0 10.0 0.00 0.00 0.00 54 1040.1
20260830084003 60 113 4.0 9.0 0.00 0.00 0.00 53 1040.2
20260830083503 61 119 4.0 14.0 0.00 0.00 0.00 53 1040.2
20260830083222 61 129 4.0 15.0 0.00 0.00 0.00 53 1040.3
20260830082503 61 146 4.0 15.0 0.00 0.00 0.00 52 1040.3
20260830082003 61 140 5.0 13.0 0.00 0.00 0.00 52 1040.3
20260830081721 61 133 6.0 14.0 0.00 0.00 0.00 52 1040.3
20260830081003 61 131 5.0 14.0 0.00 0.00 0.00 51 1040.1
20260830080503 61 124 4.0 10.0 0.00 0.00 0.00 51 1040.1
20260830080004 61 115 3.0 9.0 0.00 0.00 0.00 51 1040.3
20260830075503 61 131 3.0 9.0 0.00 0.00 0.00 51 1040.3
20260830075221 61 146 3.0 11.0 0.00 0.00 0.00 51 1040.3
20260830074503 61 150 4.0 12.0 0.00 0.00 0.00 51 1040.1
20260830074221 61 158 4.0 12.0 0.00 0.00 0.00 51 1040.1
20260830073719 61 173 3.0 12.0 0.00 0.00 0.00 51 1040.2
20260830073003 61 156 3.0 9.0 0.00 0.00 0.00 51 1040.3
20260830072720 61 154 3.0 9.0 0.00 0.00 0.00 51 1040.3
20260830072003 61 122 4.0 11.0 0.00 0.00 0.00 53 1040.6
20260830071503 60 123 4.0 11.0 0.00 0.00 0.00 53 1040.6
20260830071219 60 123 3.0 11.0 0.00 0.00 0.00 54 1040.7
20260830070503 60 156 2.0 6.0 0.00 0.00 0.00 55 1040.8
20260830070003 60 207 2.0 8.0 0.00 0.00 0.00 56 1040.8
20260830065503 60 196 2.0 8.0 0.00 0.00 0.00 56 1040.8
20260830065221 60 187 2.0 8.0 0.00 0.00 0.00 56 1040.9
20260830064503 60 145 1.0 7.0 0.00 0.00 0.00 56 1040.8
20260830064003 60 158 1.0 3.0 0.00 0.00 0.00 56 1040.9
20260830063503 60 210 1.0 3.0 0.00 0.00 0.00 57 1040.9
20260830063003 59 304 0.0 1.0 0.00 0.00 0.00 57 1041.0
20260830062503 60 304 0.0 2.0 0.00 0.00 0.00 56 1040.9
20260830062003 60 328 1.0 3.0 0.00 0.00 0.00 56 1040.9
20260830061503 60 11 1.0 3.0 0.00 0.00 0.00 55 1040.9
20260830061003 61 86 0.0 2.0 0.00 0.00 0.00 54 1041.0
20260830060503 61 86 0.0 2.0 0.00 0.00 0.00 54 1041.0
20260830060003 61 86 0.0 2.0 0.00 0.00 0.00 53 1041.0
20260830055503 62 86 0.0 1.0 0.00 0.00 0.00 53 1041.0
20260830055003 62 86 0.0 2.0 0.00 0.00 0.00 53 1041.1
20260830054503 62 86 0.0 2.0 0.00 0.00 0.00 52 1041.1
20260830054217 62 85 1.0 3.0 0.00 0.00 0.00 52 1041.2
20260830053503 62 53 1.0 3.0 0.00 0.00 0.00 53 1041.2
20260830053003 62 340 0.0 2.0 0.00 0.00 0.00 53 1041.3
20260830052503 61 342 1.0 3.0 0.00 0.00 0.00 53 1041.5
20260830052003 61 343 1.0 3.0 0.00 0.00 0.00 54 1041.5
20260830051503 61 357 1.0 3.0 0.00 0.00 0.00 54 1041.5
20260830051003 61 76 2.0 7.0 0.00 0.00 0.00 53 1041.6
20260830050718 61 83 2.0 7.0 0.00 0.00 0.00 53 1041.6
20260830050003 60 329 1.0 4.0 0.00 0.00 0.00 54 1041.6
20260830045503 61 312 0.0 1.0 0.00 0.00 0.00 54 1041.6
20260830045003 60 312 0.0 2.0 0.00 0.00 0.00 54 1041.6
20260830044503 60 312 0.0 2.0 0.00 0.00 0.00 54 1041.7
20260830044003 60 312 0.0 2.0 0.00 0.00 0.00 54 1041.5
20260830043503 60 312 0.0 2.0 0.00 0.00 0.00 53 1041.5
20260830043219 60 312 0.0 2.0 0.00 0.00 0.00 53 1041.5
20260830042503 60 311 1.0 4.0 0.00 0.00 0.00 53 1041.5
20260830042003 60 315 2.0 5.0 0.00 0.00 0.00 54 1041.5
20260830041503 60 326 1.0 5.0 0.00 0.00 0.00 54 1041.5
20260830041003 60 329 1.0 2.0 0.00 0.00 0.00 53 1041.5
20260830040504 60 336 1.0 3.0 0.00 0.00 0.00 53 1041.6
20260830040003 60 338 1.0 3.0 0.00 0.00 0.00 53 1041.6
20260830035503 60 334 2.0 4.0 0.00 0.00 0.00 53 1041.5
20260830035003 60 330 1.0 4.0 0.00 0.00 0.00 53 1041.5
20260830034503 60 331 1.0 3.0 0.00 0.00 0.00 54 1041.5
20260830034003 60 333 1.0 4.0 0.00 0.00 0.00 54 1041.4
20260830033503 60 330 3.0 6.0 0.00 0.00 0.00 56 1041.4
20260830033003 61 324 4.0 10.0 0.00 0.00 0.00 57 1041.4
20260830032503 61 316 5.0 10.0 0.00 0.00 0.00 56 1041.4
20260830032003 62 316 6.0 11.0 0.00 0.00 0.00 55 1041.4
20260830031503 63 310 7.0 14.0 0.00 0.00 0.00 54 1041.3
20260830031003 64 309 7.0 14.0 0.00 0.00 0.00 51 1041.5
20260830030503 64 316 5.0 14.0 0.00 0.00 0.00 48 1041.4
20260830030003 64 321 5.0 9.0 0.00 0.00 0.00 48 1041.3
20260830025503 64 319 3.0 6.0 0.00 0.00 0.00 48 1041.2
20260830025218 64 312 3.0 6.0 0.00 0.00 0.00 49 1041.2
20260830024503 63 313 2.0 4.0 0.00 0.00 0.00 49 1041.2
20260830024003 62 326 2.0 3.0 0.00 0.00 0.00 50 1041.2
20260830023717 62 326 2.0 3.0 0.00 0.00 0.00 51 1041.1
20260830023003 62 324 2.0 4.0 0.00 0.00 0.00 53 1041.0
20260830022718 62 322 2.0 4.0 0.00 0.00 0.00 52 1040.9
20260830022003 62 312 1.0 4.0 0.00 0.00 0.00 53 1040.8
20260830021503 62 309 1.0 3.0 0.00 0.00 0.00 52 1040.7